User: anonymous   Login
Location: Caltech
(34.1382°N, 118.1253°W)
Time: 21:56:08
(UTC-07:00)
Language:

Cosmos 44 Rocket - Orbit

View from above orbital plane
View from above orbital plane
View from above satellite
View from above satellite

Ground track
Ground track

The orbit data is extracted from the following two-line orbital elements,

1 00877U 64053B   18114.51897629 -.00000088  00000-0  70924-5 0  9996
2 00877  65.0766 102.6979 0072079 334.9566  24.8042 14.59328501846948
Epoch (UTC): 24 April 2018 12:27:19
Eccentricity: 0.0072079
inclination: 65.0766°
perigee height: 644 km
apogee height: 746 km
right ascension of ascending node: 102.6979°
argument of perigee: 334.9566°
revolutions per day: 14.59328501
mean anomaly at epoch: 24.8042°
orbit number at epoch: 84694

The dashed part of the orbit path shows where the satellite is in the earth's shadow,  

DLR